Wind_Speed
13 14 14 14 13 13 13 13 13 13 12 12 12 12 12 11 11 11 10 10 9 9 10 10 9 9 9 9 8 8 8 8 8 8 9 9 9 8 8 7 7 6 6 7
14 15 15 15 14 14 13 13 13 14 13 13 13 13 13 12 12 12 11 10 9 10 10 10 10 10 10 9 9 9 9 9 9 9 8 8 8 7 7 7 7 7 7 7
15 15 15 15 15 15 14 14 14 14 14 14 14 14 14 13 13 12 12 11 10 10 10 10 10 10 10 9 9 9 9 9 9 9 8 8 7 7 7 7 8 7 7 7
15 15 15 15 15 15 15 15 14 14 14 15 14 14 14 14 13 13 13 13 12 11 11 11 10 10 10 10 10 10 10 9 9 9 8 8 7 7 6 6 7 8 8 9
15 15 15 15 15 15 15 15 15 15 15 15 15 15 14 14 14 14 14 14 13 13 12 11 11 11 11 11 11 11 10 10 9 9 8 8 8 7 7 7 7 8 8 8
15 15 15 15 15 15 15 15 16 16 16 16 15 15 15 14 14 14 14 14 14 14 13 12 12 11 12 12 11 11 11 10 10 9 8 8 8 8 8 8 8 8 8 8
16 16 16 16 16 15 16 16 16 16 16 16 15 16 15 15 14 14 14 14 14 14 13 14 13 13 12 12 12 12 11 11 11 10 9 8 8 8 8 8 8 8 9 9
16 17 17 17 17 17 16 16 16 16 16 16 16 15 15 14 15 14 14 14 14 14 14 14 14 14 13 13 13 12 12 11 11 11 10 9 9 9 9 9 9 8 8 8
17 17 17 17 17 17 16 17 17 17 17 16 16 15 14 14 15 15 14 14 15 15 15 15 15 15 14 14 14 13 13 12 12 12 11 11 10 10 10 9 9 9 9 9
17 18 18 18 18 18 17 17 17 17 17 17 16 15 15 15 15 15 16 15 16 16 16 16 16 16 16 15 15 14 14 13 13 13 13 12 11 11 11 11 10 10 9 10
19 19 19 19 18 18 18 18 18 18 18 17 17 17 16 16 15 16 16 16 17 18 17 17 17 17 17 17 16 16 15 14 14 14 13 12 12 12 12 12 11 10 9 9
20 20 20 20 19 19 19 19 19 19 19 19 18 18 17 16 17 17 18 18 18 18 19 18 18 18 18 18 18 17 16 16 15 15 14 14 13 13 12 12 12 11 10 10
21 21 21 21 21 20 20 20 20 21 21 20 20 19 18 18 18 18 19 19 19 19 19 19 19 19 18 18 18 18 18 17 17 16 16 15 14 14 13 12 12 12 11 11
22 22 22 22 22 22 22 22 22 22 22 22 21 21 20 20 20 20 20 20 20 20 20 20 20 19 19 19 19 19 19 18 18 17 17 16 16 15 14 14 13 13 12 12
22 22 23 23 23 23 23 23 23 23 23 23 22 22 22 22 22 21 21 21 21 21 21 21 21 21 20 20 20 20 20 20 19 18 18 18 17 16 16 15 14 14 14 13
22 23 23 23 24 24 24 24 24 24 24 24 24 24 23 23 23 22 21 21 22 22 22 22 21 21 21 21 21 21 21 22 21 20 19 19 19 18 18 16 15 15 14 13
23 24 24 24 24 25 25 24 25 25 25 25 25 24 24 24 24 23 22 22 23 23 23 23 22 22 22 22 22 22 22 22 21 21 21 20 20 20 19 18 17 16 15 14
24 24 25 25 25 26 25 25 25 26 25 25 25 25 25 25 25 25 24 23 24 24 24 24 23 23 23 22 23 23 23 22 22 21 21 21 20 20 20 19 18 17 16 15
25 25 26 26 27 26 25 25 25 25 25 25 25 25 25 25 25 25 25 24 24 24 24 24 24 24 24 23 23 24 23 23 22 22 21 21 22 21 21 21 20 19 17 16
25 25 26 27 27 27 26 25 25 25 25 24 25 25 24 25 25 25 25 24 24 23 23 23 23 23 24 24 23 24 24 23 23 23 22 21 22 22 22 22 21 20 19 18
24 25 26 26 27 27 27 26 25 25 25 25 25 25 24 25 26 25 25 24 24 24 24 23 23 22 23 23 23 23 23 24 23 23 23 22 22 24 23 23 22 21 20 19
25 25 25 26 26 26 26 26 26 26 26 25 25 25 25 26 26 26 26 25 24 25 25 24 23 22 23 23 23 22 23 24 24 24 23 23 22 23 24 24 23 22 22 21
24 24 25 25 26 26 26 26 26 26 26 26 26 25 26 26 26 26 26 26 26 26 26 25 24 23 23 23 23 23 22 22 23 23 23 24 24 24 25 25 24 24 23 22
24 24 24 25 25 25 25 26 26 26 27 27 27 26 26 26 26 26 26 25 25 25 25 25 24 24 23 23 24 23 23 23 23 23 24 24 24 24 25 25 25 24 24 24
22 23 24 24 24 25 24 25 25 26 26 27 27 27 26 26 25 25 25 25 25 25 25 25 24 23 23 23 23 23 23 24 24 23 24 25 26 25 25 25 26 25 26 26
21 23 24 25 24 25 25 25 25 25 25 26 26 25 25 26 26 26 25 25 25 25 24 24 23 23 23 22 22 22 23 23 24 24 24 25 27 26 26 26 27 27 27 26
Wind_Direction
253 253 255 257 258 260 259 260 264 268 272 275 278 283 289 289 287 290 292 292 291 291 292 292 295 296 297 297 297 296 295 296 298 297 295 291 285 277 271 263 258 253 253 249
254 254 256 257 259 260 259 260 263 265 270 274 277 280 285 286 284 284 286 288 290 290 290 290 291 294 298 297 294 294 291 291 295 294 293 289 284 274 267 258 254 254 254 249
256 257 257 258 259 259 259 261 263 265 269 274 278 278 279 281 281 279 280 282 284 285 286 286 288 290 293 294 292 292 290 289 291 291 290 289 284 275 267 262 256 255 252 249
256 258 258 258 259 259 261 262 265 266 269 274 275 277 277 277 277 275 275 277 277 280 281 282 284 286 288 291 290 291 288 287 288 290 288 285 283 277 273 267 261 257 253 249
256 257 257 257 259 260 262 264 265 267 270 275 277 277 276 277 275 271 272 273 275 276 278 277 278 282 284 288 289 288 285 282 281 283 284 279 274 270 271 273 268 264 258 255
257 257 257 258 259 262 264 265 266 268 272 274 276 278 277 277 275 272 271 272 273 274 277 276 276 277 281 284 286 286 282 279 277 278 278 273 268 267 267 269 269 268 263 257
258 259 258 258 260 263 264 266 268 270 271 274 275 275 275 275 273 272 272 273 272 272 273 275 275 275 278 281 283 283 281 279 276 275 272 267 264 265 265 265 268 268 263 254
259 261 260 259 261 265 264 262 265 269 272 276 276 275 274 274 271 270 270 270 271 270 272 273 273 275 276 278 280 279 277 275 275 272 269 266 265 266 264 265 265 263 260 255
260 262 261 260 262 264 265 264 265 268 271 273 275 274 273 272 272 270 268 269 269 270 271 272 271 273 275 276 277 276 273 271 269 269 268 268 268 264 261 264 264 261 261 256
259 261 261 261 261 262 263 265 265 268 273 273 273 272 271 272 272 270 270 271 271 271 272 272 271 272 273 274 274 274 272 270 267 266 266 265 264 264 263 264 262 261 260 255
258 261 261 261 262 263 262 262 265 269 270 272 273 273 273 273 272 271 271 272 272 273 273 272 271 271 271 271 271 270 270 269 265 264 264 264 263 262 264 262 259 257 256 252
258 261 261 261 261 262 263 264 266 269 271 272 272 273 272 272 272 272 272 273 273 272 272 272 272 271 270 269 268 268 266 265 263 263 262 260 260 260 261 258 257 256 253 250
259 261 260 260 259 260 262 264 266 268 269 269 271 274 271 270 271 271 272 273 273 272 271 271 271 271 270 268 266 265 263 262 261 260 259 257 258 258 257 256 255 254 255 250
259 259 259 260 261 262 261 263 265 266 268 269 270 272 270 269 269 270 271 271 271 271 270 270 269 268 268 268 266 266 261 258 258 257 256 255 256 254 254 254 254 254 254 251
258 258 259 260 261 262 263 265 267 268 269 270 270 271 271 271 270 270 269 269 269 269 268 267 267 266 267 267 266 264 261 257 255 254 253 253 252 251 250 252 252 252 251 250
260 262 262 262 263 264 265 266 269 270 271 272 272 272 272 271 271 271 270 270 269 268 268 268 267 265 265 265 265 264 261 257 253 251 249 250 250 248 247 249 250 250 248 248
260 262 263 265 265 266 266 267 268 269 270 272 272 272 271 269 268 270 271 271 270 268 267 267 268 267 264 263 263 261 259 255 252 249 248 247 246 245 244 244 245 246 247 247
260 262 265 267 266 267 270 270 270 271 271 272 272 271 271 270 268 270 271 271 269 267 266 266 266 265 264 263 261 258 257 254 251 250 248 245 243 242 241 241 243 244 246 246
261 264 266 268 268 269 270 271 271 272 272 272 273 272 272 271 269 269 270 271 270 268 266 265 265 265 264 264 260 256 254 252 251 250 249 245 242 241 239 240 242 244 246 245
264 266 267 269 270 271 272 272 272 272 272 272 273 275 274 272 269 270 268 269 267 266 266 265 264 266 266 263 260 255 251 249 248 249 248 245 241 240 240 240 241 244 245 244
263 265 267 268 270 272 273 273 272 272 273 274 274 274 275 272 271 271 268 268 266 266 265 266 265 266 265 263 259 255 250 247 246 247 245 244 241 239 240 240 240 243 243 243
265 266 267 269 271 273 273 273 273 273 273 274 275 274 274 273 271 270 268 268 266 266 265 265 264 265 264 262 258 253 247 245 245 245 244 242 239 238 238 240 242 241 241 242
265 266 267 269 272 274 273 273 274 274 274 274 274 274 274 272 270 269 268 267 265 264 264 264 264 263 262 259 255 251 248 245 244 244 243 242 241 239 238 240 241 241 241 241
265 267 269 271 273 274 274 274 274 275 275 275 274 274 274 272 271 271 269 268 267 266 265 264 262 262 261 257 253 249 246 245 244 244 243 241 242 241 239 239 239 240 241 241
268 270 271 271 273 275 275 275 275 274 275 274 274 273 272 271 271 270 269 267 268 266 266 264 261 258 257 255 250 248 246 246 245 243 243 242 241 241 242 240 239 240 241 242
272 272 272 273 275 276 276 275 274 274 276 275 274 273 271 271 270 270 268 266 266 265 265 264 261 256 254 252 249 249 247 247 248 246 245 243 240 241 241 240 240 240 242 243
Height
5867 5869 5869 5870 5871 5872 5872 5872 5872 5872 5872 5872 5871 5871 5870 5869 5868 5868 5867 5866 5865 5864 5863 5862 5861 5860 5859 5858 5857 5856 5855 5854 5853 5852 5851 5850 5849 5849 5848 5848 5848 5848 5848 5848
5864 5865 5866 5866 5867 5868 5868 5869 5869 5869 5868 5869 5868 5868 5867 5866 5866 5865 5864 5864 5863 5862 5861 5860 5859 5858 5857 5856 5855 5854 5853 5852 5851 5850 5849 5848 5847 5847 5847 5846 5846 5846 5846 5847
5860 5862 5862 5863 5863 5864 5865 5865 5865 5865 5865 5865 5865 5865 5864 5863 5862 5862 5861 5861 5860 5860 5859 5858 5857 5856 5855 5854 5853 5852 5851 5850 5849 5848 5847 5847 5846 5845 5845 5845 5845 5845 5845 5845
5857 5858 5858 5859 5860 5860 5861 5861 5862 5862 5862 5861 5862 5861 5861 5860 5859 5859 5858 5858 5857 5857 5856 5855 5854 5854 5853 5852 5851 5850 5849 5848 5847 5846 5845 5845 5844 5844 5844 5843 5843 5843 5843 5844
5853 5854 5855 5856 5856 5857 5857 5858 5858 5858 5858 5858 5858 5857 5858 5856 5856 5855 5855 5854 5854 5853 5853 5852 5851 5851 5850 5849 5848 5847 5846 5846 5845 5844 5843 5843 5843 5842 5842 5842 5842 5842 5842 5842
5849 5850 5851 5852 5852 5853 5853 5854 5854 5854 5854 5854 5854 5853 5853 5852 5852 5851 5851 5850 5850 5849 5849 5849 5848 5848 5847 5846 5846 5845 5844 5843 5843 5842 5841 5841 5841 5840 5840 5840 5840 5840 5840 5840
5846 5846 5847 5848 5848 5849 5849 5850 5850 5850 5850 5850 5850 5849 5850 5848 5847 5847 5847 5846 5846 5845 5845 5845 5845 5845 5844 5843 5843 5842 5841 5841 5840 5840 5839 5839 5839 5838 5838 5838 5838 5838 5838 5838
5842 5843 5843 5843 5844 5844 5845 5846 5847 5847 5846 5846 5845 5845 5845 5844 5843 5842 5842 5842 5841 5841 5841 5841 5841 5841 5840 5840 5839 5838 5838 5838 5837 5837 5837 5837 5837 5836 5836 5836 5836 5836 5836 5836
5837 5838 5839 5839 5839 5840 5840 5841 5842 5842 5841 5841 5841 5841 5840 5839 5839 5838 5838 5838 5837 5837 5837 5837 5836 5836 5836 5836 5836 5835 5835 5835 5835 5834 5834 5834 5834 5834 5834 5834 5834 5834 5834 5834
5833 5834 5834 5834 5835 5835 5836 5836 5837 5837 5837 5836 5837 5836 5836 5835 5834 5834 5834 5833 5833 5833 5833 5832 5832 5832 5832 5832 5832 5831 5831 5831 5831 5831 5831 5831 5831 5831 5831 5831 5831 5831 5831 5831
5827 5829 5829 5829 5830 5830 5831 5832 5831 5832 5832 5832 5832 5833 5831 5830 5830 5829 5829 5828 5828 5828 5828 5828 5827 5827 5827 5827 5827 5827 5827 5827 5828 5828 5828 5828 5828 5828 5828 5828 5828 5828 5829 5829
5822 5823 5823 5824 5824 5825 5825 5826 5826 5827 5826 5826 5826 5829 5826 5825 5824 5824 5823 5823 5823 5823 5822 5822 5822 5822 5822 5822 5822 5822 5822 5823 5823 5824 5824 5825 5825 5825 5825 5825 5825 5826 5826 5826
5816 5817 5818 5818 5820 5820 5820 5820 5820 5821 5821 5820 5821 5824 5820 5819 5819 5818 5818 5818 5817 5817 5817 5817 5817 5816 5816 5816 5816 5817 5817 5818 5819 5819 5820 5820 5821 5821 5821 5822 5822 5823 5823 5823
5810 5810 5812 5813 5813 5813 5813 5814 5814 5814 5814 5814 5815 5815 5814 5813 5812 5812 5812 5811 5811 5811 5811 5811 5811 5811 5811 5811 5811 5811 5811 5812 5813 5814 5815 5816 5817 5817 5818 5818 5819 5819 5820 5820
5803 5804 5805 5806 5806 5806 5807 5807 5807 5807 5807 5807 5808 5807 5808 5806 5806 5806 5805 5805 5805 5804 5804 5804 5805 5805 5805 5805 5805 5805 5805 5806 5807 5809 5810 5811 5812 5813 5813 5814 5815 5815 5816 5817
5796 5797 5798 5799 5799 5799 5800 5800 5800 5800 5800 5800 5800 5800 5800 5799 5798 5798 5798 5798 5798 5798 5798 5798 5798 5798 5798 5799 5799 5799 5799 5800 5801 5803 5804 5805 5806 5807 5809 5809 5810 5811 5812 5813
5789 5791 5791 5792 5792 5792 5793 5794 5793 5793 5792 5792 5792 5793 5792 5792 5791 5791 5791 5791 5790 5791 5790 5790 5791 5791 5791 5792 5792 5792 5793 5793 5794 5796 5798 5799 5800 5802 5803 5805 5806 5807 5808 5809
5783 5783 5783 5784 5785 5785 5789 5786 5786 5785 5785 5784 5784 5784 5784 5784 5784 5783 5783 5783 5783 5783 5783 5783 5783 5783 5784 5784 5784 5785 5786 5787 5788 5789 5791 5792 5794 5796 5798 5799 5801 5802 5804 5805
5775 5776 5776 5777 5776 5777 5779 5778 5778 5777 5777 5777 5776 5776 5776 5775 5776 5776 5775 5775 5775 5775 5775 5775 5775 5775 5776 5776 5776 5777 5778 5780 5781 5783 5784 5786 5788 5789 5791 5794 5795 5797 5799 5800
5768 5768 5769 5768 5768 5769 5771 5770 5769 5770 5769 5769 5768 5768 5767 5767 5767 5768 5767 5767 5767 5767 5767 5767 5767 5767 5767 5768 5768 5769 5771 5772 5774 5776 5778 5779 5781 5783 5785 5788 5790 5792 5793 5795
5760 5760 5760 5760 5760 5761 5762 5761 5762 5763 5762 5761 5760 5760 5759 5759 5759 5759 5759 5759 5759 5759 5759 5759 5759 5759 5759 5760 5760 5762 5763 5765 5767 5768 5770 5772 5774 5777 5779 5781 5784 5786 5788 5789
5752 5752 5753 5753 5753 5755 5753 5753 5753 5753 5752 5752 5752 5751 5751 5750 5750 5750 5750 5750 5750 5751 5751 5751 5751 5751 5751 5751 5752 5754 5756 5757 5759 5761 5763 5765 5767 5769 5772 5775 5777 5779 5781 5783
5744 5745 5745 5746 5747 5745 5744 5744 5744 5744 5743 5743 5743 5743 5742 5741 5741 5741 5742 5742 5742 5742 5742 5743 5742 5743 5743 5744 5744 5746 5748 5750 5752 5754 5756 5758 5760 5762 5765 5768 5770 5772 5775 5777
5737 5736 5737 5737 5737 5737 5737 5736 5736 5735 5734 5734 5734 5734 5733 5733 5733 5733 5733 5733 5733 5733 5733 5734 5734 5734 5735 5735 5737 5739 5741 5743 5744 5747 5748 5751 5753 5755 5757 5760 5763 5765 5768 5770
5729 5729 5729 5728 5729 5729 5729 5728 5727 5727 5726 5725 5725 5724 5724 5724 5724 5724 5724 5724 5724 5724 5725 5725 5725 5725 5726 5727 5729 5731 5733 5735 5737 5739 5741 5743 5745 5748 5750 5752 5756 5758 5761 5763
5722 5722 5721 5721 5722 5721 5721 5720 5719 5718 5717 5716 5716 5716 5715 5715 5715 5715 5715 5715 5715 5715 5716 5716 5716 5717 5718 5719 5721 5723 5725 5727 5729 5731 5733 5735 5738 5740 5742 5745 5748 5750 5753 5755